Location: Croydon
(51.3762°N, 0.0982°W)
Time: 20:09:42
(UTC+00:00)

Altair - Pass Details

Date: 23 November 2019
Orbit: 1502 x 1682 km, 47.2° (Epoch: 05 December)

Event Time Altitude Azimuth Distance (km) Brightness Sun altitude
Rises 04:22:41 0° 259° (W) 4,641 - -28.7°
Reaches altitude 10° 04:25:42 10° 257° (WSW) 3,655 - -28.2°
Exits shadow 04:31:47 46° 242° (WSW) 1,932 7.6 -27.3°
Maximum altitude 04:34:47 69° 177° (S) 1,593 7.5 -26.8°
Drops below altitude 10° 04:43:59 10° 96° (E) 3,702 10.5 -25.4°
Sets 04:47:04 0° 95° (E) 4,704 11.4 -24.9°
